Location: Newark
(45.2500°N, 7.5833°E)
Time: 02:24:57
(UTC+00:00)

N. Korean satellite - Pass Details

Date: 15 December 2019
Orbit: 454 x 507 km, 97.2° (Epoch: 23 January)

Event Time Altitude Azimuth Distance (km) Brightness Sun altitude
Rises 04:26:46 0° 29° (NNE) 2,526 10.5 -26.2°
Reaches altitude 10° 04:29:28 10° 52° (NE) 1,631 9.8 -25.7°
Maximum altitude 04:31:42 16° 92° (E) 1,289 9.6 -25.3°
Drops below altitude 10° 04:33:55 10° 132° (SE) 1,606 9.9 -25.0°
Sets 04:36:32 0° 155° (SSE) 2,466 10.6 -24.5°
